WOWS Stats & Numbers - World of Warships statistics

Transfers



[V-T3R] VALTER'S BANDIT$
Date Player WN8 Win Rate Battles
26.02.2017 muua__dib 2 011 56.95% 13 613
26.02.2017 ExtremeUnicornWarfare 1 754 52.78% 26 250
25.02.2017 SerbianUnicum 2 681 58.67% 10 032
24.02.2017 THE__PUNISHER__ 2 403 58.21% 37 363
23.02.2017 _M0TiViST 2 173 56.69% 27 973
23.02.2017 _Idfc_ 2 698 58.89% 10 687
22.02.2017 Accidental_G3n1us 3 261 63.81% 14 544
21.02.2017 FreemanNSM 2 019 55.12% 49 585
21.02.2017 synQx___ 2 032 56.44% 16 254
21.02.2017 FancyAlexs 2 270 57.41% 8 987
19.02.2017 KingPin_ 2 086 55.59% 43 392
17.02.2017 Neavy 2 629 61.34% 14 164
17.02.2017 superkiller33 2 306 57.54% 5 217
17.02.2017 TECHXPOSE 1 592 52.54% 26 190
17.02.2017 joks256 1 781 55.62% 22 680
17.02.2017 Mom_Get_The_Camera_We 2 094 55.35% 33 911
17.02.2017 Medjed 2 591 58.72% 20 350
17.02.2017 NersOne 2 513 56.4% 11 594
17.02.2017 duckdownkid 1 837 55.97% 32 743
17.02.2017 General_Johny 2 214 55.62% 41 736
16.02.2017 FancyAlexs 2 270 57.41% 8 987
16.02.2017 C_A_L_I_B_R_A 1 967 56.09% 42 964
16.02.2017 svvire 2 498 57.67% 26 348
16.02.2017 GLUTES 2 120 55.22% 28 509
15.02.2017 ASSASSIN373 2 039 60.14% 15 405
14.02.2017 mirnestz 1 645 53.6% 27 722
13.02.2017 TIGER_SILVER 1 885 56.33% 16 116
12.02.2017 BTR_semirzmaj 2 084 55.6% 36 184
12.02.2017 krokodilDandee 2 314 56.72% 30 440
11.02.2017 toma_vb 2 100 57.05% 30 619
11.02.2017 _Anas 2 240 59.24% 5 641
11.02.2017 V4syl 2 106 57.19% 12 643
11.02.2017 GLUTES 2 120 55.22% 28 509
10.02.2017 BTR_semirzmaj 2 084 55.6% 36 184
07.02.2017 akreca 1 886 54.44% 25 578
07.02.2017 _TR_8R 1 942 54.22% 25 963
05.02.2017 Batgirl 2 187 57.45% 30 095
05.02.2017 di18rus 3 336 64.08% 2 812
05.02.2017 _Zamasu 3 049 60.5% 3 281
04.02.2017 DespicableFTB 2 106 55.47% 20 455
04.02.2017 BOTPRO 2 266 56.09% 22 586
04.02.2017 duckdownkid 1 837 55.97% 32 743
04.02.2017 _Wanna_Be_Unicum_ 2 644 56.59% 1 958
04.02.2017 synQx___ 2 032 56.44% 16 254
04.02.2017 makso_zr 2 268 56.82% 38 858
03.02.2017 LaGger_SRB 1 980 57.05% 22 340
03.02.2017 amkaabi 1 924 53.46% 36 049
03.02.2017 NVB_Sasuke_ 2 101 54.63% 15 367
03.02.2017 RageBro_Ivanic94 1 843 54.9% 20 487
03.02.2017 Jebivetar_Pero 2 254 55.72% 43 597
03.02.2017 SagittariusB2 2 597 58.94% 25 531
03.02.2017 Dread86 2 697 58.94% 14 728
03.02.2017 _Anas 2 240 59.24% 5 641
02.02.2017 Borat1924__ 1 964 53.94% 54 315
02.02.2017 eKinetic 1 920 53.5% 12 886
02.02.2017 V4syl 2 106 57.19% 12 643
02.02.2017 SandzakBull 1 782 53.36% 35 604
01.02.2017 Timi_ks 1 728 53.49% 24 724
01.02.2017 Tivadar_L_szl_Kelemen 2 154 57.95% 16 890
01.02.2017 _Zamasu 3 049 60.5% 3 281
01.02.2017 J_a_N_g_O 4 235 66.55% 4 048
31.01.2017 Str1ke_
from: [USSR] USSR
1 837 54.94% 13 861
31.01.2017 tomottyboi 1 810 53.57% 9 812
30.01.2017 PardubicakCze 2 025 56.46% 30 721
30.01.2017 BOTPRO 2 266 56.09% 22 586
30.01.2017 gordan8282 1 936 56.83% 41 902
26.01.2017 _Idfc_ 2 698 58.89% 10 687
24.01.2017 IUTIPatriot 1 537 51.42% 25 408
24.01.2017 _R3Flex 2 554 59.61% 8 667
23.01.2017 Master_Kudo 2 051 56.14% 7 096
23.01.2017 Jucatorul2 3 016 63.02% 10 573
21.01.2017 Princess_Ema 2 965 60.59% 42 537
21.01.2017 Rakumi 1 980 54.04% 13 946
21.01.2017 svvire 2 498 57.67% 26 348
19.01.2017 Kingdanzz 2 504 57.47% 22 777
19.01.2017 di18rus 3 336 64.08% 2 812
19.01.2017 Princess_Ema 2 965 60.59% 42 537
19.01.2017 Coa1998 1 691 53.22% 26 273
19.01.2017 J_a_N_g_O 4 235 66.55% 4 048
18.01.2017 Zmiu_Ga_Loma_ 4 611 65.22% 1 340
17.01.2017 puzzlebreaker 1 954 53.81% 18 316
16.01.2017 DerDissident 2 424 57.93% 7 778
13.01.2017 Geisterjager 1 973 55.67% 19 164
12.01.2017 9th_Warrior 3 347 63.69% 14 393
11.01.2017 1grenata_2tenka 2 504 58.47% 19 888
11.01.2017 makso_zr 2 268 56.82% 38 858
11.01.2017 T_E_S_L_A 2 301 57.41% 18 727
10.01.2017 Sgt_Kiki 2 130 57.24% 28 622
10.01.2017 _R3Flex 2 554 59.61% 8 667
09.01.2017 Sgt_Kiki 2 130 57.24% 28 622
08.01.2017 Coa1998 1 691 53.22% 26 273
06.01.2017 superkiller33 2 306 57.54% 5 217
06.01.2017 _DynamicGameplay_ 1 848 54.65% 39 520
05.01.2017 7hunders 2 372 58.38% 8 863
05.01.2017 General_Johny 2 214 55.62% 41 736
05.01.2017 SirTheGozd20 1 786 54.14% 16 355
05.01.2017 noboni 2 272 56.74% 34 936
05.01.2017 Bjelosevic 1 811 53.61% 22 735
04.01.2017 Jebivetar_Pero 2 254 55.72% 43 597
04.01.2017 superkiller33 2 306 57.54% 5 217
04.01.2017 lorthiras 1 540 51.17% 25 525
04.01.2017 Pavlov91 1 674 53.24% 28 368
04.01.2017 superiorsrb 1 663 53.18% 15 116
04.01.2017 ZvoneST 1 962 54.7% 14 305
04.01.2017 mrtvimarijan 1 759 54.96% 31 461
03.01.2017 NersOne 2 513 56.4% 11 594
02.01.2017 Nihon_v2 2 235 58.9% 2 966
02.01.2017 reNEgaDe__ 1 936 53.77% 23 798
01.01.2017 Horri_sniper 2 143 56.58% 12 557
30.12.2016 SrThanatos666 2 239 56.33% 18 318
26.12.2016 AlphaTheIronFate 1 577 53.27% 25 228
24.12.2016 NVB_Sasuke_ 2 101 54.63% 15 367
23.12.2016 thesorin 1 808 53.9% 13 780
23.12.2016 gordan8282 1 936 56.83% 41 902
22.12.2016 Geisterjager 1 973 55.67% 19 164
21.12.2016 DMX__IQ 2 095 55.58% 28 695
21.12.2016 J4Ck__ 3 038 60.41% 16 434
18.12.2016 masssive 2 349 57.24% 63 043
18.12.2016 Dr_Ecstasy_ 2 318 55.94% 28 925
17.12.2016 SandzakD00M 2 017 57.07% 10 739
16.12.2016 IchMagZuegee 3 022 62.97% 37 251
16.12.2016 Such_Savage 2 104 56.41% 10 502
16.12.2016 mpg20 1 259 50.1% 15 510
15.12.2016 wasili18 2 069 56.27% 4 949
13.12.2016 wasili18 2 069 56.27% 4 949
13.12.2016 General_Johny 2 214 55.62% 41 736
12.12.2016 vanForme 2 143 53.8% 18 167
08.12.2016 mani_the_blyatoris 2 266 60.18% 8 017
06.12.2016 SandzakD00M 2 017 57.07% 10 739
06.12.2016 Such_Savage 2 104 56.41% 10 502
05.12.2016 MaximusFantasius 1 921 53.55% 22 709
05.12.2016 NVB_Sasuke_ 2 101 54.63% 15 367
05.12.2016 Wolfzr87 1 934 54.02% 20 833
05.12.2016 mpg20 1 259 50.1% 15 510
03.12.2016 DMX__IQ 2 095 55.58% 28 695
02.12.2016 SrThanatos666 2 239 56.33% 18 318
02.12.2016 9th_Warrior 3 347 63.69% 14 393
01.12.2016 Bataljun 2 230 56.03% 25 122
01.12.2016 Giorgi739 1 960 53.04% 25 849
01.12.2016 Verrucht 2 479 57.82% 22 820
01.12.2016 Angry_Sh4rk 3 114 60.45% 6 069
30.11.2016 BOTPRO 2 266 56.09% 22 586
30.11.2016 General_Johny 2 214 55.62% 41 736
29.11.2016 IchMagZuegee 3 022 62.97% 37 251
29.11.2016 __ANNIHILATOR__EU 2 423 56.77% 17 036
27.11.2016 Dread86 2 697 58.94% 14 728
26.11.2016 Jucatorul2 3 016 63.02% 10 573
26.11.2016 akreca 1 886 54.44% 25 578
26.11.2016 __ANNIHILATOR__EU 2 423 56.77% 17 036
23.11.2016 Horri_sniper 2 143 56.58% 12 557
21.11.2016 lovrima 1 631 53.19% 25 610
20.11.2016 NarodniHeroj 2 017 55.79% 39 805
20.11.2016 Kahega 1 827 53.93% 38 653
18.11.2016 _ThePreacher_ 2 212 55.78% 31 282
18.11.2016 _SOBRANIE_ 2 106 56.95% 7 879
16.11.2016 Infektid 1 998 55.16% 35 661
09.11.2016 Mr_Wombat 1 854 53.97% 23 961
06.11.2016 toma_vb 2 100 57.05% 30 619
06.11.2016 TheStroy 1 895 54.95% 21 856
04.11.2016 TheStroy 1 895 54.95% 21 856
03.11.2016 miskom 1 819 54.42% 43 664
01.11.2016 Styrr 2 175 55.77% 17 168
01.11.2016 McDude2013 2 144 55.11% 38 678
31.10.2016 Samulayo 2 688 59.48% 459
31.10.2016 Imperfection_PL 2 336 56.96% 12 171
30.10.2016 Samulayo 2 688 59.48% 459
28.10.2016 Mom_Get_The_Camera_We 2 094 55.35% 33 911
28.10.2016 BTR_semirzmaj 2 084 55.6% 36 184
28.10.2016 mani_the_blyatoris 2 266 60.18% 8 017
28.10.2016 sostyk 2 013 55.97% 42 151
27.10.2016 jejej111 2 139 55.63% 23 444
27.10.2016 HarderStylezZ 1 910 55.47% 20 704
27.10.2016 QWYX_is_CHEEKIBREEKI_man 1 772 55.46% 56 777
24.10.2016 jejej111 2 139 55.63% 23 444
24.10.2016 neCr00 2 243 60.38% 42 493
24.10.2016 Pisko_ 1 676 52.87% 25 125
24.10.2016 Chokolatt 2 587 59.57% 8 259
24.10.2016 D3adm3n 2 205 56.8% 14 309
22.10.2016 MalaSova 1 903 54.89% 34 492
22.10.2016 flystation 2 642 57.42% 3 452
22.10.2016 LaGger_SRB 1 980 57.05% 22 340
22.10.2016 CalLightman 2 170 55.42% 7 200
22.10.2016 Push_My_Car 2 020 53.62% 51 920
20.10.2016 sostyk 2 013 55.97% 42 151
20.10.2016 __S_R_B_I_N__ 1 730 53.49% 22 714
19.10.2016 WITTE_FREDDY 2 256 57.65% 23 086
19.10.2016 joleeZD 1 954 54.86% 39 099
18.10.2016 Iso009 1 598 53.69% 14 661
18.10.2016 Wolfzr87 1 934 54.02% 20 833
17.10.2016 neCr00 2 243 60.38% 42 493
15.10.2016 lav61 2 248 57.43% 5 868
15.10.2016 _SOBRANIE_ 2 106 56.95% 7 879
15.10.2016 nukeftw 2 591 58.13% 4 359
14.10.2016 amkaabi 1 924 53.46% 36 049
14.10.2016 GespensterJaeger 1 529 52.99% 36 281
13.10.2016 __Dream_boy__ 2 334 57.39% 30 660
12.10.2016 Ryuzzaki 1 814 52.49% 42 129
11.10.2016 HarderStylezZ 1 910 55.47% 20 704
11.10.2016 Styrr 2 175 55.77% 17 168
10.10.2016 McDude2013 2 144 55.11% 38 678
10.10.2016 ADP10 2 011 54.96% 31 826
09.10.2016 MayTheHEATbeWithYou 1 842 54.51% 15 485
09.10.2016 The_Motans 1 762 51.96% 44 716
09.10.2016 david_oops 2 016 54.53% 22 318
09.10.2016 Last_Desire 2 619 57.09% 10 195
09.10.2016 thesorin 1 808 53.9% 13 780
07.10.2016 _DynamicGameplay_ 1 848 54.65% 39 520
07.10.2016 NVB_Sasuke_ 2 101 54.63% 15 367
07.10.2016 Ryuzzaki 1 814 52.49% 42 129
05.10.2016 joleeZD 1 954 54.86% 39 099
05.10.2016 caneT83 1 606 52.99% 48 268
05.10.2016 grafotekaSRB 1 425 50.88% 30 283
04.10.2016 No_Bounce 2 217 55.69% 18 050
02.10.2016 J4Ck__ 3 038 60.41% 16 434
02.10.2016 Chokolatt 2 587 59.57% 8 259
02.10.2016 Imperfection_PL 2 336 56.96% 12 171
01.10.2016 BluePill 2 066 56.93% 32 096
01.10.2016 Bouninou 2 159 55.58% 15 353
30.09.2016 RageBro_Ivanic94 1 843 54.9% 20 487
30.09.2016 LaGger_SRB 1 980 57.05% 22 340
30.09.2016 Push_My_Car 2 020 53.62% 51 920
30.09.2016 kenoza 2 064 55.38% 5 397
30.09.2016 ggijaa 2 119 55.53% 14 820
30.09.2016 Mrtvac1_1 1 761 56.3% 12 798
29.09.2016 LaGger_SRB 1 980 57.05% 22 340
28.09.2016 puzzlebreaker 1 954 53.81% 18 316
28.09.2016 Imp87 1 947 56.31% 29 902
24.09.2016 Waemoth 2 158 55.51% 24 868
22.09.2016 Nishizumi_Kojiro 1 968 54.83% 12 897
22.09.2016 QWYX_is_CHEEKIBREEKI_man 1 772 55.46% 56 777
22.09.2016 PardubicakCze 2 025 56.46% 30 721
22.09.2016 lav61 2 248 57.43% 5 868
22.09.2016 RNG_by_HEAT 2 190 57.58% 10 493
21.09.2016 MalaSova 1 903 54.89% 34 492
20.09.2016 Rakumi 1 980 54.04% 13 946
20.09.2016 WeakBlueAnimal 2 121 56.54% 9 216
19.09.2016 Mateocro 1 543 54.89% 23 814
19.09.2016 MrSlatkaSarma 1 582 51.46% 44 324
19.09.2016 Spitz_Kopf_Larry 1 728 54.24% 12 230
19.09.2016 __Just4Pain__ 2 378 56.13% 2 088
19.09.2016 dkriza 1 760 54.18% 19 064
19.09.2016 TomaSmrt 1 620 52.87% 17 283
19.09.2016 sosta 2 095 55.53% 24 461
19.09.2016 ddrazen 1 495 51.78% 33 351
19.09.2016 WarLegend1 1 647 51.2% 78 582
19.09.2016 C_A_L_I_B_R_A 1 967 56.09% 42 964
18.09.2016 Giorgi739 1 960 53.04% 25 849
18.09.2016 BluePill 2 066 56.93% 32 096
18.09.2016 vlade_90 2 367 57.8% 30 711
17.09.2016 carlos_sydney 1 670 53.56% 23 684
16.09.2016 Grub3r 1 900 53.03% 25 314
15.09.2016 Spitz_Kopf_Larry 1 728 54.24% 12 230
15.09.2016 MayTheHEATbeWithYou 1 842 54.51% 15 485
15.09.2016 mix9801 2 036 55.11% 26 909
15.09.2016 Park_Avenue_KNY_AR_432HK 2 436 67.89% 10 438
15.09.2016 Bouninou 2 159 55.58% 15 353
14.09.2016 th3skipper 1 838 53.73% 13 399
14.09.2016 The_Motans 1 762 51.96% 44 716
13.09.2016 Potporucnik 1 874 54.42% 41 977
12.09.2016 IUTIPatriot 1 537 51.42% 25 408
10.09.2016 flashoverride86 1 893 55.9% 14 242
07.09.2016 OMGitsLegeNd 2 292 60.29% 3 747
06.09.2016 Infektid 1 998 55.16% 35 661
06.09.2016 The_Motans 1 762 51.96% 44 716
05.09.2016 Roktaal 1 660 52.47% 29 508
03.09.2016 Mrtvac1_1 1 761 56.3% 12 798
03.09.2016 Iluminati_Overlord 1 772 51.69% 8 002
02.09.2016 CRO_BRIGADA 1 799 60.19% 30 805
02.09.2016 Verrucht 2 479 57.82% 22 820
02.09.2016 Medjed 2 591 58.72% 20 350
01.09.2016 Aragnok 1 986 57.49% 7 097
01.09.2016 CalLightman 2 170 55.42% 7 200
01.09.2016 Warzones08 1 582 51.21% 26 417
30.08.2016 The_Motans 1 762 51.96% 44 716
30.08.2016 MrSlatkaSarma 1 582 51.46% 44 324
30.08.2016 LascO_LegenD 1 779 54.69% 15 973
29.08.2016 Flu_ffy 1 751 55.93% 31 550
29.08.2016 Dado_Ze 1 878 55.86% 66 111
29.08.2016 TheGreatEnemy 1 854 54.65% 25 367
29.08.2016 sapy 1 754 51.37% 16 438
28.08.2016 Park_Avenue_KNY_AR_432HK 2 436 67.89% 10 438
28.08.2016 __Gornik__ 1 596 53.57% 36 958
28.08.2016 TankMann85 2 937 60.52% 3 435
27.08.2016 PljUvAcH 1 860 55.28% 21 366
27.08.2016 lronic 2 009 54.18% 5 238
26.08.2016 Hrabrimalitoster 1 809 52.45% 24 165
26.08.2016 Redelwen 1 886 56.67% 28 826
25.08.2016 MekeszfromKosd 2 176 55.28% 34 363
25.08.2016 ZyiX_x_PWnZ 1 749 53.7% 15 056
23.08.2016 WarLegend1 1 647 51.2% 78 582
23.08.2016 Grub3r 1 900 53.03% 25 314
23.08.2016 ar2di2_75 2 242 55.73% 10 270
23.08.2016 Tiborb84 1 584 53.75% 36 899
23.08.2016 merzii 2 002 55.38% 28 180
22.08.2016 caneT83 1 606 52.99% 48 268
22.08.2016 TankMann85 2 937 60.52% 3 435
21.08.2016 petkonzy 1 620 55.16% 29 124
19.08.2016 __Zyraxes__ 2 089 54.23% 25 783
19.08.2016 cutdarthvader 1 686 54.06% 35 770
17.08.2016 wot_chikor 1 847 52.77% 51 188
17.08.2016 JOK3R_1607 1 537 52.3% 28 795
16.08.2016 flystation 2 642 57.42% 3 452
16.08.2016 Lukast021 1 754 54.19% 37 547
16.08.2016 __Zyraxes__ 2 089 54.23% 25 783
16.08.2016 RageBro_Ivanic94 1 843 54.9% 20 487
16.08.2016 Direfuze 1 828 52% 36 106
16.08.2016 ar2di2_75 2 242 55.73% 10 270
16.08.2016 IUTIPatriot 1 537 51.42% 25 408
16.08.2016 MSUSasuke_U4G 2 702 59.18% 39 395
15.08.2016 MaximusFantasius 1 921 53.55% 22 709
15.08.2016 Imp87 1 947 56.31% 29 902
15.08.2016 SagittariusB2 2 597 58.94% 25 531
15.08.2016 GOGURYEO 1 704 53.92% 37 854
13.08.2016 SquirrelGoesNuts 1 837 54.4% 22 975
12.08.2016 cutdarthvader 1 686 54.06% 35 770
12.08.2016 GreenSIice 4 234 64.21% 4 350
10.08.2016 Mateocro 1 543 54.89% 23 814
10.08.2016 SirTheGozd20 1 786 54.14% 16 355
10.08.2016 iWeasel 2 151 54.76% 20 854
10.08.2016 Vinsanity 1 819 55.51% 23 760
10.08.2016 skumitenkista 1 652 53.16% 18 222
10.08.2016 ernys159 2 066 54.93% 18 075
09.08.2016 LascO_LegenD 1 779 54.69% 15 973
09.08.2016 carlos_sydney 1 670 53.56% 23 684
09.08.2016 Aragnok
from: [N00T] NOOT
1 986 57.49% 7 097
09.08.2016 superiorsrb 1 663 53.18% 15 116
09.08.2016 SquirrelGoesNuts 1 837 54.4% 22 975
09.08.2016 ZyiX_x_PWnZ 1 749 53.7% 15 056
08.08.2016 superkiller33 2 306 57.54% 5 217
08.08.2016 ___PowerSaw___ 2 202 56.24% 17 008
08.08.2016 ___HidDeT___ 2 134 55.61% 11 432
08.08.2016 mihay87 1 482 52.09% 21 004
04.08.2016 Warzones08 1 582 51.21% 26 417
04.08.2016 __Just4Pain__ 2 378 56.13% 2 088
03.08.2016 MSUSasuke_U4G 2 702 59.18% 39 395
01.08.2016 Icebreaker123 1 971 55.07% 20 038
31.07.2016 MooWoolf 1 899 54.96% 19 767
30.07.2016 Redelwen
from: [N00T] NOOT
1 886 56.67% 28 826
30.07.2016 SINGH_1S_KING 2 155 56.7% 8 170
30.07.2016 Potporucnik 1 874 54.42% 41 977
29.07.2016 DamageHigh 1 988 56.41% 55 284
28.07.2016 crv00 1 708 53.83% 30 592
28.07.2016 sapy 1 754 51.37% 16 438
28.07.2016 Sgt_Dooom 1 992 57.99% 11 518
28.07.2016 RoIINTroII 2 436 57.54% 10 940
27.07.2016 ___HidDeT___ 2 134 55.61% 11 432
26.07.2016 OMGitsLegeNd 2 292 60.29% 3 747
26.07.2016 Kta_87 1 767 53.43% 19 338
26.07.2016 Maxime981 949 47.56% 20 263
26.07.2016 Kob4tus 1 822 55.88% 5 771
26.07.2016 Sinteus 2 290 55.81% 29 086
25.07.2016 kenoza 2 064 55.38% 5 397
25.07.2016 Maxime981 949 47.56% 20 263
24.07.2016 Sofijanac 2 266 57.69% 37 602
23.07.2016 Iluminati_Overlord 1 772 51.69% 8 002
22.07.2016 AlphaTheIronFate 1 577 53.27% 25 228
22.07.2016 RoIINTroII 2 436 57.54% 10 940
21.07.2016 WA_Mozart 2 979 62.25% 702
20.07.2016 DamageHigh 1 988 56.41% 55 284
19.07.2016 PUNJABI_STYLE 1 960 56.15% 5 955
19.07.2016 tornadoCROgamer 1 661 52.53% 14 998
18.07.2016 GOGURYEO 1 704 53.92% 37 854
18.07.2016 Sofijanac 2 266 57.69% 37 602
17.07.2016 _SOBRANIE_ 2 106 56.95% 7 879
16.07.2016 nemesis_cro 2 129 55.9% 49 714
14.07.2016 Sgt_Dooom 1 992 57.99% 11 518
10.07.2016 senkokiler 2 006 54.96% 17 184
09.07.2016 lronic 2 009 54.18% 5 238
09.07.2016 Commandant_Scylla 2 694 58.18% 10 553
09.07.2016 Sgt_Dooom 1 992 57.99% 11 518
09.07.2016 Tenk34 1 633 57.63% 33 459
09.07.2016 WA_Mozart 2 979 62.25% 702
08.07.2016 ggijaa 2 119 55.53% 14 820
08.07.2016 PMR81 1 656 53.24% 46 230
07.07.2016 Duhach 2 400 57.46% 32 005
07.07.2016 Milaninho 2 418 58.41% 30 195
06.07.2016 pirke077 1 777 52.21% 49 271
05.07.2016 CryTek67 1 976 53.51% 6 604
04.07.2016 Vinsanity 1 819 55.51% 23 760
03.07.2016 Last_Desire 2 619 57.09% 10 195
03.07.2016 fullgore 1 845 57.73% 17 309
02.07.2016 vernl 2 367 59.54% 19 228
01.07.2016 CryTek67
from: [N00T] NOOT
1 976 53.51% 6 604
30.06.2016 _MrLucky_ 1 964 55.59% 2 693
30.06.2016 JonikkaSRB 1 572 53.08% 33 906
29.06.2016 SandzakBull 1 782 53.36% 35 604
28.06.2016 elek 1 871 55.58% 60 414
28.06.2016 grafotekaSRB
from: [MRK] MRK!
1 425 50.88% 30 283
28.06.2016 Direfuze 1 828 52% 36 106
27.06.2016 nemesis_cro 2 129 55.9% 49 714
26.06.2016 merzii 2 002 55.38% 28 180
25.06.2016 Commandant_Scylla 2 694 58.18% 10 553
25.06.2016 KeepCalmAndWatchTheSky 2 824 55.15% 379
24.06.2016 mix9801 2 036 55.11% 26 909
24.06.2016 RNG_by_HEAT 2 190 57.58% 10 493
22.06.2016 Maluqinho_Bestija 2 584 59.31% 6 679
21.06.2016 ernys159 2 066 54.93% 18 075
20.06.2016 flashoverride86 1 893 55.9% 14 242
19.06.2016 Trec3 1 875 55.57% 24 547
19.06.2016 Hrabrimalitoster 1 809 52.45% 24 165
18.06.2016 SINGH_1S_KING 2 155 56.7% 8 170
18.06.2016 david29111970 1 578 52.43% 54 824
18.06.2016 SandzakBull 1 782 53.36% 35 604
17.06.2016 mrtvimarijan 1 759 54.96% 31 461
17.06.2016 Roktaal 1 660 52.47% 29 508
17.06.2016 EnderZ420 2 165 56.97% 6 182
16.06.2016 Maluqinho_Bestija 2 584 59.31% 6 679
16.06.2016 Zeko_Ministar_1 2 041 56.57% 5 171
14.06.2016 elek 1 871 55.58% 60 414
13.06.2016 vernl 2 367 59.54% 19 228
13.06.2016 madmaxx13 2 533 58.05% 9 253
13.06.2016 Commander_BorderLine 2 196 55.19% 18 195
13.06.2016 German223 1 707 53.19% 19 822
13.06.2016 kabines96 2 263 56.56% 9 973
13.06.2016 Noone90 2 054 56.13% 23 847
13.06.2016 SINGH_1S_KING 2 155 56.7% 8 170
12.06.2016 Stronku_Boy 1 769 52.18% 14 811
11.06.2016 Bjelosevic 1 811 53.61% 22 735
11.06.2016 KeepCalmAndWatchTheSky 2 824 55.15% 379
11.06.2016 cuban_man 2 627 57.45% 5 387
10.06.2016 EnderZ420 2 165 56.97% 6 182
09.06.2016 tenkistaNo1 1 785 53.28% 42 407
09.06.2016 __Ovidiu__ 2 111 54.27% 5 117
08.06.2016 __Ovidiu__ 2 111 54.27% 5 117
08.06.2016 WeakBlueAnimal 2 121 56.54% 9 216
06.06.2016 mitar85 1 831 53.86% 37 542
05.06.2016 _HateFul_ 2 093 54.51% 25 446
05.06.2016 Fukljo 1 965 54.92% 22 631
04.06.2016 ___PowerSaw___ 2 202 56.24% 17 008
04.06.2016 MartinNS 1 797 53.5% 82 942
02.06.2016 __icy__ 2 155 56.3% 34 905
01.06.2016 GreenSIice 4 234 64.21% 4 350
01.06.2016 Borat1924__ 1 964 53.94% 54 315
31.05.2016 Cero_ 2 051 56.25% 2 718
31.05.2016 Seargent1 2 271 57.17% 26 015
31.05.2016 rakenzy 2 294 59.44% 26 432
31.05.2016 DugiM 1 676 56.81% 20 961
31.05.2016 pepac 1 713 54.56% 32 839
31.05.2016 Clax 1 562 58.1% 20 497
31.05.2016 damircbr 1 457 50.99% 24 923
29.05.2016 __GeOne__ 1 662 52.64% 41 612
29.05.2016 fullgore 1 845 57.73% 17 309
29.05.2016 P_A_L_A_D_I_N_E 2 530 59.55% 6 774
29.05.2016 Hellsing_1 1 854 53.98% 14 095
29.05.2016 dog6 1 798 55.15% 20 266
28.05.2016 TECHXPOSE 1 592 52.54% 26 190
28.05.2016 German223 1 707 53.19% 19 822
28.05.2016 Stronku_Boy 1 769 52.18% 14 811
28.05.2016 Trec3 1 875 55.57% 24 547
28.05.2016 __icy__ 2 155 56.3% 34 905
25.05.2016 _MrLucky_ 1 964 55.59% 2 693
25.05.2016 Tenk34 1 633 57.63% 33 459
24.05.2016 Sgt_Dooom 1 992 57.99% 11 518
23.05.2016 Duhach 2 400 57.46% 32 005
23.05.2016 Milaninho 2 418 58.41% 30 195
23.05.2016 xMikyx 1 673 53.45% 34 545
23.05.2016 Smartformer 2 913 59.62% 10 468
21.05.2016 speede11 1 531 52.55% 16 829
19.05.2016 Forza_Master 2 218 58.23% 6 620
18.05.2016 P_A_L_A_D_I_N_E 2 530 59.55% 6 774
18.05.2016 TukyGaming_xD 2 075 55.19% 29 030
16.05.2016 TukyGaming_xD 2 075 55.19% 29 030
15.05.2016 ADP10 2 011 54.96% 31 826
14.05.2016 katalingo 1 683 52.91% 44 252
13.05.2016 Stronk_Camper 3 117 62.5% 4 317
13.05.2016 TheStroy 1 895 54.95% 21 856
12.05.2016 ExtremeUnicornWarfare 1 754 52.78% 26 250
11.05.2016 bosanskamikaza 1 744 54.03% 28 126
10.05.2016 bosanskamikaza 1 744 54.03% 28 126
10.05.2016 Son_Of_Majstora 2 375 57.8% 5 471
09.05.2016 Cero_ 2 051 56.25% 2 718
08.05.2016 Forza_Master 2 218 58.23% 6 620
07.05.2016 darkospijunovic 1 678 53.56% 26 395
07.05.2016 Fukljo 1 965 54.92% 22 631
06.05.2016 samer3aeu2 1 528 53.01% 26 357
05.05.2016 masssive 2 349 57.24% 63 043
05.05.2016 kabines96 2 263 56.56% 9 973
04.05.2016 NeoNet 2 596 62.41% 32 285
03.05.2016 mastercome91 1 721 52.89% 20 114
03.05.2016 filip222sb 1 919 54.27% 35 252
03.05.2016 _TR_8R 1 942 54.22% 25 963
03.05.2016 lovrima 1 631 53.19% 25 610
02.05.2016 alergo11 1 811 54% 19 512
02.05.2016 Brrabus 2 141 54.8% 34 148
02.05.2016 masssive 2 349 57.24% 63 043
02.05.2016 zeko_tz 1 784 55.52% 15 458
01.05.2016 LaGger_SRB 1 980 57.05% 22 340
30.04.2016 VonGoofy 1 925 55.5% 32 862
30.04.2016 Sandz0 2 168 54.43% 38 256
30.04.2016 axlegend1 1 831 53.18% 22 524
30.04.2016 alergo11 1 811 54% 19 512
30.04.2016 Luc1fer86 1 819 54.28% 11 293
30.04.2016 brkan 1 441 50.26% 55 985
30.04.2016 Dreamlord 1 252 54.89% 17 405
30.04.2016 mulithekid 1 398 50.34% 64 534
30.04.2016 henrymaster 1 764 52.61% 19 213
30.04.2016 Aleksandargreat 1 625 52.36% 22 175
29.04.2016 Commander_BorderLine 2 196 55.19% 18 195
28.04.2016 _TheSpirit_ 1 644 52.91% 11 358
28.04.2016 RickyTheRedDog 1 605 53.75% 7 393
28.04.2016 Sebedie 1 812 56.07% 41 611
28.04.2016 DarthCharius 1 827 54.07% 42 122
28.04.2016 Kreshow 2 274 56.49% 34 451
27.04.2016 VonGoofy 1 925 55.5% 32 862
25.04.2016 Stronk_Camper 3 117 62.5% 4 317
22.04.2016 dpecko 1 679 53.06% 21 830
22.04.2016 Sadeghmxx 1 882 54.71% 25 736
21.04.2016 Mis_Mekinjas 2 215 55.69% 1 178
21.04.2016 Phantoml0rd 1 623 51.8% 14 670
20.04.2016 Smartformer 2 913 59.62% 10 468
20.04.2016 dpecko 1 679 53.06% 21 830
19.04.2016 david_oops 2 016 54.53% 22 318
18.04.2016 RageBro_Ivanic94 1 843 54.9% 20 487
18.04.2016 speede11 1 531 52.55% 16 829
17.04.2016 NeoNet 2 596 62.41% 32 285
17.04.2016 Kreshow 2 274 56.49% 34 451
17.04.2016 Sebedie 1 812 56.07% 41 611
16.04.2016 madmaxx13 2 533 58.05% 9 253
16.04.2016 1MaTrIxx1 2 089 54.89% 21 651
16.04.2016 __KeNiJ__ 1 857 55.78% 14 155
14.04.2016 Seargent1 2 271 57.17% 26 015
14.04.2016 iDayne 2 581 58.6% 10 977
14.04.2016 robalPL47 1 543 53.06% 25 982
14.04.2016 mirnestz 1 645 53.6% 27 722
14.04.2016 SINGH_1S_KING 2 155 56.7% 8 170
13.04.2016 PUNJABI_STYLE 1 960 56.15% 5 955
13.04.2016 cuban_man
from: [CTRL-] CTRL
2 627 57.45% 5 387
13.04.2016 Smartformer 2 913 59.62% 10 468
12.04.2016 tornadoCROgamer 1 661 52.53% 14 998
12.04.2016 Lukast021 1 754 54.19% 37 547
12.04.2016 Hellsing_1 1 854 53.98% 14 095
12.04.2016 Sadeghmxx 1 882 54.71% 25 736
12.04.2016 Desecrated 2 211 57.86% 15 580
10.04.2016 Desecrated 2 211 57.86% 15 580
10.04.2016 JopaPL 1 782 54.4% 2 046
10.04.2016 _NoM_Dule_Kenjara 2 893 60.4% 5 967
09.04.2016 axlegend1 1 831 53.18% 22 524
09.04.2016 ZvoneST 1 962 54.7% 14 305
06.04.2016 Bouninou 2 159 55.58% 15 353
05.04.2016 Bouninou 2 159 55.58% 15 353
04.04.2016 Xboot 2 026 58.55% 8 280
04.04.2016 mata190 1 730 54.12% 23 588
04.04.2016 BKatt 2 444 56.34% 21 550
03.04.2016 Smartformer 2 913 59.62% 10 468
03.04.2016 Clax 1 562 58.1% 20 497
03.04.2016 Son_Of_Majstora 2 375 57.8% 5 471
03.04.2016 TimPaCt_The_Deadly 2 055 56.06% 8 418
02.04.2016 SandzakBull 1 782 53.36% 35 604
02.04.2016 __KeNiJ__ 1 857 55.78% 14 155
02.04.2016 BKatt 2 444 56.34% 21 550
31.03.2016 Xboot 2 026 58.55% 8 280
31.03.2016 zeko_tz 1 784 55.52% 15 458
30.03.2016 Ender__wiggins 1 408 56.18% 17 680
29.03.2016 TimPaCt_The_Deadly 2 055 56.06% 8 418
28.03.2016 david29111970 1 578 52.43% 54 824
28.03.2016 TomaSmrt 1 620 52.87% 17 283
27.03.2016 martinkrisztian 1 971 55.24% 20 349
27.03.2016 OMGitsLegeNd 2 292 60.29% 3 747
27.03.2016 TheotY 1 590 52.65% 19 359
27.03.2016 SkanySativa_CRO 2 087 55.44% 29 591
27.03.2016 cokizg 1 443 51.48% 26 249
27.03.2016 3mixx3 1 609 52.58% 5 848
27.03.2016 BoletopCRO 2 620 58.67% 2 105
27.03.2016 KoTeHoK_KLi4KE_GaV 1 986 57.34% 7 748
27.03.2016 iDayne 2 581 58.6% 10 977
27.03.2016 _NoM_Dule_Kenjara 2 893 60.4% 5 967
27.03.2016 TheotY 1 590 52.65% 19 359
26.03.2016 91destroyer 1 620 52.09% 23 262
26.03.2016 Nelos 1 634 52.42% 36 277
26.03.2016 KARGADAN 1 238 50.63% 19 482
26.03.2016 KARGADAN 1 238 50.63% 19 482
26.03.2016 Hvarska_Zvir 1 540 50.33% 39 882
24.03.2016 Ender__wiggins 1 408 56.18% 17 680
24.03.2016 Superbaka 1 485 52.71% 25 237
24.03.2016 DenisTuzla 1 781 56.43% 1 299
24.03.2016 herose9 2 058 54.81% 23 233
24.03.2016 nom__nom 1 592 53.53% 21 269
23.03.2016 mirnestz 1 645 53.6% 27 722
23.03.2016 Kta_87 1 767 53.43% 19 338
21.03.2016 MooWoolf 1 899 54.96% 19 767
21.03.2016 senkokiler 2 006 54.96% 17 184
21.03.2016 diskonindja 1 701 51.81% 66 168
21.03.2016 lovrima 1 631 53.19% 25 610
21.03.2016 RAMBO_RO 1 729 54.53% 26 454
20.03.2016 mata190 1 730 54.12% 23 588
20.03.2016 samer3aeu2 1 528 53.01% 26 357
20.03.2016 ljubosek007 1 314 50.18% 29 177
20.03.2016 bubasvaba1982 1 624 51.22% 33 425
20.03.2016 Gotorak 1 437 51.47% 22 521
19.03.2016 rakenzy 2 294 59.44% 26 432
19.03.2016 Ceda_Kralj 1 926 56.17% 19 940
18.03.2016 Tschechich 2 157 56.51% 16 856
16.03.2016 diskonindja 1 701 51.81% 66 168
15.03.2016 1MaTrIxx1 2 089 54.89% 21 651
15.03.2016 Carnator 1 511 53.09% 19 649
15.03.2016 Trollollillo 1 712 53.8% 25 324
14.03.2016 x_Dimitris_x 1 814 56.82% 5 283
13.03.2016 Borat1924__ 1 964 53.94% 54 315
13.03.2016 RAMBO_RO 1 729 54.53% 26 454
12.03.2016 saibotSWE 1 875 53.63% 46 288
12.03.2016 herose9 2 058 54.81% 23 233
12.03.2016 KoTeHoK_KLi4KE_GaV 1 986 57.34% 7 748
11.03.2016 _TheSpirit_ 1 644 52.91% 11 358
11.03.2016 Aleksandargreat 1 625 52.36% 22 175
11.03.2016 Sandz0 2 168 54.43% 38 256
10.03.2016 xxX_MLG_Banana_Xxx 4 412 65.63% 4 199
10.03.2016 CongTong 1 583 52.56% 24 928
10.03.2016 Buz3r 1 281 49.86% 31 556
09.03.2016 Fanatik75 1 535 52.45% 22 277
06.03.2016 _Anti__Noob_ 2 189 56.52% 8 453
06.03.2016 270_Winchester 1 878 53.51% 21 096
05.03.2016 Buz3r 1 281 49.86% 31 556
04.03.2016 Trollollillo 1 712 53.8% 25 324
04.03.2016 neural86 1 897 55.58% 33 337
04.03.2016 MalySmokot 1 530 53.2% 22 360
04.03.2016 leeman3 1 631 53.32% 8 624
04.03.2016 Banokles 1 834 54.5% 56 644
03.03.2016 _zipfeeL 1 608 52.87% 36 284
03.03.2016 _Dyler_ 1 827 55.34% 49 721
02.03.2016 skumitenkista 1 652 53.16% 18 222
01.03.2016 ___Grunf___ 1 952 54.42% 51 681
29.02.2016 Pisko_ 1 676 52.87% 25 125
29.02.2016 henrymaster 1 764 52.61% 19 213
29.02.2016 Mr_Bombastikk 1 668 55.44% 37 321
29.02.2016 saibotSWE
from: [USSR] USSR
1 875 53.63% 46 288
28.02.2016 sop_senior 1 371 52.87% 24 612
28.02.2016 iWeasel 2 151 54.76% 20 854
28.02.2016 Mis_Mekinjas 2 215 55.69% 1 178
27.02.2016 MisterArell 2 068 54.3% 31 023
27.02.2016 d_O_O_b 2 244 57.08% 685
27.02.2016 MonsterMilkman 1 716 54.99% 36 931
25.02.2016 gogutza 1 940 53.89% 26 560
25.02.2016 sorrow43 1 730 52.56% 24 451
25.02.2016 Ilija_Cvorovic 1 450 50.83% 46 998
24.02.2016 neural86 1 897 55.58% 33 337
24.02.2016 MisterArell 2 068 54.3% 31 023
21.02.2016 SkanySativa_CRO 2 087 55.44% 29 591
21.02.2016 iDayne 2 581 58.6% 10 977
20.02.2016 sorrow43 1 730 52.56% 24 451
20.02.2016 Sinteus 2 290 55.81% 29 086
20.02.2016 tor007 1 644 53.91% 55 050
20.02.2016 lorthiras 1 540 51.17% 25 525
20.02.2016 _BigFugo_ 1 707 51.86% 18 023
20.02.2016 Mrtvac1_1 1 761 56.3% 12 798
19.02.2016 iDayne 2 581 58.6% 10 977
18.02.2016 _BigFugo_ 1 707 51.86% 18 023
18.02.2016 RickyTheRedDog 1 605 53.75% 7 393
18.02.2016 nom__nom 1 592 53.53% 21 269
18.02.2016 sale6263 1 533 51.49% 23 406
17.02.2016 DarthCharius 1 827 54.07% 42 122
16.02.2016 gogutza 1 940 53.89% 26 560
16.02.2016 Stark000 1 594 51.77% 22 863
15.02.2016 sale6263 1 533 51.49% 23 406
14.02.2016 _JuDaS_WhO_SoLd_JeSuS_ 1 376 51% 24 282
12.02.2016 Ticallion36 1 770 54.44% 44 914
12.02.2016 GILE77 1 635 53.13% 36 949
11.02.2016 Hvarska_Zvir 1 540 50.33% 39 882
09.02.2016 mihay87 1 482 52.09% 21 004
07.02.2016 nlkk 2 233 55.56% 360
07.02.2016 WuTanker 2 070 57.62% 18 600
06.02.2016 Fury_GX 2 527 57.35% 3 660
06.02.2016 paparazzov77 1 734 52.58% 25 573
05.02.2016 mastercome91 1 721 52.89% 20 114
04.02.2016 Mr_Bombastikk 1 668 55.44% 37 321
04.02.2016 PozzMan 2 123 57.03% 17 863
03.02.2016 IcoH 2 103 54.37% 23 419
03.02.2016 HEMAVO2 2 055 55.35% 25 364
03.02.2016 bRavac 2 094 58.42% 6 446
03.02.2016 DenisTuzla 1 781 56.43% 1 299
03.02.2016 stormlaur 1 398 51.47% 43 083
02.02.2016 Desecrated
from: [IMX] I'm X
2 211 57.86% 15 580
02.02.2016 Velloxx 1 777 55.23% 10 627
02.02.2016 burhanpashatr 1 809 53.38% 17 063
02.02.2016 cocojumbo_2015 2 451 55.99% 7 864
02.02.2016 Karma_to_Burn 1 819 54.17% 37 060
02.02.2016 DeerHunter93 1 691 53.22% 22 569
02.02.2016 nikolap84 1 867 53.99% 26 873
01.02.2016 nlkk 2 233 55.56% 360
01.02.2016 fillax 1 681 52.46% 32 794
01.02.2016 nemom93 1 842 53.64% 26 550
01.02.2016 TheotY 1 590 52.65% 19 359
01.02.2016 joogeee 1 387 53.38% 14 251
01.02.2016 gillee 1 718 52.59% 21 463
01.02.2016 ghidi 1 449 51.2% 17 604
01.02.2016 IcoH 2 103 54.37% 23 419
01.02.2016 bRavac 2 094 58.42% 6 446
01.02.2016 Adrijano09 1 543 50.25% 23 140
31.01.2016 Phantoml0rd 1 623 51.8% 14 670
30.01.2016 Ceda_Kralj 1 926 56.17% 19 940
30.01.2016 Sandokan_cro 2 024 56.23% 24 202
30.01.2016 Fury_GX 2 527 57.35% 3 660
28.01.2016 GOX_Haubica 1 346 52.23% 38 444
27.01.2016 Banokles 1 834 54.5% 56 644
27.01.2016 Discomaster 1 999 55.59% 1 153
27.01.2016 XerBlO 1 839 53.37% 13 386
26.01.2016 tor007 1 644 53.91% 55 050
26.01.2016 cocojumbo_2015 2 451 55.99% 7 864
25.01.2016 tenkistaNo1 1 785 53.28% 42 407
25.01.2016 OMGitsLegeNd 2 292 60.29% 3 747
25.01.2016 CRO_SPANA 1 893 55.64% 18 441
25.01.2016 filip222sb 1 919 54.27% 35 252
25.01.2016 damircbr 1 457 50.99% 24 923
24.01.2016 martinkrisztian 1 971 55.24% 20 349
24.01.2016 _FUHR3R 2 645 59.32% 9 182
24.01.2016 PMR81 1 656 53.24% 46 230
22.01.2016 Kob4tus 1 822 55.88% 5 771
22.01.2016 sop_senior 1 371 52.87% 24 612
21.01.2016 Warrior_1389 1 596 53.75% 3 278
21.01.2016 crvic 1 686 52.85% 30 239
20.01.2016 Carnator 1 511 53.09% 19 649
20.01.2016 Stark000 1 594 51.77% 22 863
20.01.2016 petarpetric3 1 787 53.13% 34 986
19.01.2016 nikolap84 1 867 53.99% 26 873
18.01.2016 korniszon_ 1 642 54.5% 10 953
18.01.2016 brkan 1 441 50.26% 55 985
18.01.2016 petarpetric3 1 787 53.13% 34 986
18.01.2016 Sandokan_cro 2 024 56.23% 24 202
17.01.2016 crv00 1 708 53.83% 30 592
17.01.2016 cokizg 1 443 51.48% 26 249
16.01.2016 mulithekid 1 398 50.34% 64 534
15.01.2016 _Gandalf_ThE_Gray_ 1 593 53.04% 23 901
15.01.2016 Velloxx 1 777 55.23% 10 627
15.01.2016 PCkanuista 2 085 55.41% 10 720
14.01.2016 ___Grunf___ 1 952 54.42% 51 681
13.01.2016 3mixx3 1 609 52.58% 5 848
13.01.2016 ionicafardefric 1 854 53.96% 41 138
13.01.2016 Superbaka 1 485 52.71% 25 237
13.01.2016 HEMAVO2 2 055 55.35% 25 364
12.01.2016 DoomBringer_BG 1 913 54.56% 40 961
12.01.2016 lovrima 1 631 53.19% 25 610
11.01.2016 DeerHunter93 1 691 53.22% 22 569
11.01.2016 DarthCharius 1 827 54.07% 42 122
11.01.2016 Kob4tus 1 822 55.88% 5 771
10.01.2016 _Kylo__Ren_ 2 652 60.14% 3 274
10.01.2016 _Herr_John_R_ 1 920 54.44% 33 887
10.01.2016 DoctorDeath_The_ANIMAL 2 034 55.19% 30 701
10.01.2016 Random_invader 1 666 54.54% 2 072
08.01.2016 Leona4com 1 856 53.35% 9 916
07.01.2016 leeman3 1 631 53.32% 8 624
07.01.2016 s3tof 1 878 53.56% 26 385
06.01.2016 ZdravkoColic 1 847 55.18% 22 292
05.01.2016 TheGreatEnemy 1 854 54.65% 25 367
04.01.2016 DoomBringer_BG 1 913 54.56% 40 961
03.01.2016 Leona4com 1 856 53.35% 9 916
03.01.2016 CongTong 1 583 52.56% 24 928
03.01.2016 _Zlatny_Ljiljan_ 2 020 55.84% 22 838
03.01.2016 21black21 2 298 55.23% 22 839
02.01.2016 alergo11 1 811 54% 19 512
01.01.2016 d_O_O_b 2 244 57.08% 685
01.01.2016 MonsterMilkman 1 716 54.99% 36 931
31.12.2015 _FUHR3R 2 645 59.32% 9 182
31.12.2015 Tona_ 1 704 53.06% 26 821
30.12.2015 _Anti__Noob_ 2 189 56.52% 8 453
30.12.2015 Xanza05 1 782 54.13% 28 743
30.12.2015 _Zlatny_Ljiljan_ 2 020 55.84% 22 838
30.12.2015 lovrima 1 631 53.19% 25 610
29.12.2015 korniszon_ 1 642 54.5% 10 953
29.12.2015 shunqino 1 247 50.88% 45 579
28.12.2015 21black21 2 298 55.23% 22 839
28.12.2015 ___PowerSaw___ 2 202 56.24% 17 008
28.12.2015 Sveta7 1 638 53.68% 11 091
28.12.2015 sale6263 1 533 51.49% 23 406
28.12.2015 _FlyingPineapple_ 1 865 56.89% 4 004
28.12.2015 ludivepar 1 313 52.27% 35 025
28.12.2015 mani_the_blyatoris 2 266 60.18% 8 017
28.12.2015 warlions 1 303 50.62% 26 430
28.12.2015 kirovista 1 394 51.4% 12 402
28.12.2015 djemekk 1 701 52.62% 45 026
28.12.2015 KapetanComas 1 564 54.35% 32 236
28.12.2015 Hvarska_Zvir 1 540 50.33% 39 882
28.12.2015 Tschechich 2 157 56.51% 16 856
28.12.2015 Pavlov91 1 674 53.24% 28 368
27.12.2015 miranslo 1 633 52.71% 44 456
26.12.2015 Random_invader 1 666 54.54% 2 072
26.12.2015 worldoftanks93_2015 2 238 57.67% 860
24.12.2015 AlphaTheIronFate 1 577 53.27% 25 228
23.12.2015 mani_the_blyatoris 2 266 60.18% 8 017
23.12.2015 pikypoky 1 479 52.48% 43 970
22.12.2015 _Gandalf_ThE_Gray_ 1 593 53.04% 23 901
22.12.2015 XerBlO 1 839 53.37% 13 386
21.12.2015 dkriza 1 760 54.18% 19 064
21.12.2015 Karma_to_Burn 1 819 54.17% 37 060
21.12.2015 XUnicumX 1 542 56.3% 56 190
20.12.2015 mani_the_blyatoris 2 266 60.18% 8 017
20.12.2015 Jesus610 1 339 50.47% 20 771
19.12.2015 _Gandalf_ThE_Gray_ 1 593 53.04% 23 901
18.12.2015 _Dyler_ 1 827 55.34% 49 721
16.12.2015 miranslo 1 633 52.71% 44 456
16.12.2015 worldoftanks93_2015 2 238 57.67% 860
14.12.2015 s3tof 1 878 53.56% 26 385
13.12.2015 goranoo 2 122 56.14% 27 763
13.12.2015 _Lamb_of_god_ 1 749 53.91% 8 406
12.12.2015 grikopacquiao 2 026 54.49% 29 937
11.12.2015 ForgetMeNot_ 2 141 56.09% 26 055
10.12.2015 kico987 2 372 59.42% 22 703
09.12.2015 ZoranSRB1985 1 336 49.94% 27 583
09.12.2015 x_Dimitris_x 1 814 56.82% 5 283
08.12.2015 MrBule 2 506 58.34% 7 151
08.12.2015 La_Pesta 2 087 56.87% 40 736
08.12.2015 GNENAD 1 638 52.05% 37 087
07.12.2015 Sveta7 1 638 53.68% 11 091
05.12.2015 Seksi_Gnjurac 2 127 57.21% 20 042
04.12.2015 1337Jocker 2 076 55.68% 21 730
04.12.2015 mrtavac 1 627 52.9% 54 270
02.12.2015 mayer_92 1 636 53.96% 35 959
01.12.2015 Noone90 2 054 56.13% 23 847
01.12.2015 Outclassed_xD 2 419 58.15% 51 270
30.11.2015 burhanpashatr 1 809 53.38% 17 063
30.11.2015 CRO_TIGER_DUX 1 733 54.16% 45 564
29.11.2015 MrBule 2 506 58.34% 7 151
29.11.2015 ThehandofGod1 2 244 60.13% 2 729
29.11.2015 drColumbusOkrutni 1 943 54.44% 40 343
28.11.2015 Arsenalist90 1 951 55.14% 29 569
28.11.2015 BoletopCRO 2 620 58.67% 2 105
28.11.2015 _Avrelio_ 1 837 53.26% 8 155
26.11.2015 DUCA_ 2 001 57.72% 18 665
25.11.2015 Arsenalist90 1 951 55.14% 29 569
25.11.2015 Leona4com 1 856 53.35% 9 916
25.11.2015 Giorgi739 1 960 53.04% 25 849
25.11.2015 goranoo 2 122 56.14% 27 763
24.11.2015 komaracIVC 1 655 52.19% 22 286
23.11.2015 _Lamb_of_god_ 1 749 53.91% 8 406
23.11.2015 Warrior_1389 1 596 53.75% 3 278
22.11.2015 another_acc 2 253 56.94% 8 642
22.11.2015 IISasorII 1 534 51.45% 21 488
22.11.2015 __SPRAJA__ 1 577 52.27% 51 680
22.11.2015 MalySmokot 1 530 53.2% 22 360
22.11.2015 mrtavac 1 627 52.9% 54 270
21.11.2015 1337Jocker 2 076 55.68% 21 730
21.11.2015 Seksi_Gnjurac 2 127 57.21% 20 042
21.11.2015 Scrop 1 643 51.93% 14 614
21.11.2015 tigar007 1 872 51.93% 26 780
21.11.2015 Warous 1 377 50.12% 18 216
20.11.2015 La_Pesta 2 087 56.87% 40 736
20.11.2015 ForgetMeNot_ 2 141 56.09% 26 055
20.11.2015 Groff 1 705 54.98% 44 697
19.11.2015 St4r_L1ke 2 956 61.4% 11 333
19.11.2015 ___PowerSaw___ 2 202 56.24% 17 008
19.11.2015 Groff 1 705 54.98% 44 697
18.11.2015 mani_the_blyatoris 2 266 60.18% 8 017
18.11.2015 _Herr_John_R_ 1 920 54.44% 33 887
17.11.2015 _Gandalf_ThE_Gray_ 1 593 53.04% 23 901
17.11.2015 Krakinjo 1 551 52.95% 25 260
15.11.2015 _JuDaS_WhO_SoLd_JeSuS_ 1 376 51% 24 282
14.11.2015 Luc1fer86 1 819 54.28% 11 293
14.11.2015 AlphaTheIronFate 1 577 53.27% 25 228
13.11.2015 D3adm3n 2 205 56.8% 14 309
13.11.2015 JOK3R_1607 1 537 52.3% 28 795
13.11.2015 paparazzov77 1 734 52.58% 25 573
12.11.2015 nic1989 2 433 56.56% 26 557
12.11.2015 djemekk 1 701 52.62% 45 026
12.11.2015 lorddjinns 1 857 53.62% 34 838
12.11.2015 XxJinsxX 1 433 49.68% 37 805
11.11.2015 CRO_TIGER_DUX 1 733 54.16% 45 564
11.11.2015 MareMatrix 2 237 55.35% 9 579
10.11.2015 _FlyingPineapple_ 1 865 56.89% 4 004
09.11.2015 Lanser6 1 748 54.68% 38 475
09.11.2015 GespensterJaeger 1 529 52.99% 36 281
09.11.2015 Jesus610 1 339 50.47% 20 771
09.11.2015 mortener 1 375 52.31% 19 718
09.11.2015 GNENAD 1 638 52.05% 37 087
09.11.2015 Vortex_AZE 2 317 59.92% 1 582
07.11.2015 Vortex_AZE 2 317 59.92% 1 582
06.11.2015 mortener 1 375 52.31% 19 718
06.11.2015 pepac 1 713 54.56% 32 839
05.11.2015 Desecrated 2 211 57.86% 15 580
05.11.2015 henrymaster 1 764 52.61% 19 213
05.11.2015 _TheJoker 2 289 57.33% 17 070
05.11.2015 SaMo_NaCl 1 652 52.68% 22 745
05.11.2015 lewylewy 1 637 53.94% 28 120
05.11.2015 MrBiceps93 1 764 53.56% 16 551
05.11.2015 viermicica 1 815 54.65% 44 444
04.11.2015 Discomaster 1 999 55.59% 1 153
04.11.2015 St4r_L1ke 2 956 61.4% 11 333
04.11.2015 bubasvaba1982 1 624 51.22% 33 425
04.11.2015 Topn 1 968 52.69% 38 515
02.11.2015 celepharn 2 173 58.77% 48 708
02.11.2015 PauliCro 2 536 58.41% 13 406
02.11.2015 Blesavko 2 169 57.3% 28 517
01.11.2015 KapetanComas 1 564 54.35% 32 236
01.11.2015 kakozasto 2 340 56.96% 26 684
31.10.2015 NersOne 2 513 56.4% 11 594
30.10.2015 _Kylo__Ren_ 2 652 60.14% 3 274
30.10.2015 stormlaur 1 398 51.47% 43 083
29.10.2015 _SN0B_ 2 403 60.8% 926
29.10.2015 Matek67 1 746 54.33% 17 932
29.10.2015 vulcandabo 2 016 54.19% 25 308
29.10.2015 Argus83 1 605 52.33% 29 976
29.10.2015 Ticallion36 1 770 54.44% 44 914
29.10.2015 kirovista 1 394 51.4% 12 402
29.10.2015 Outclassed_xD 2 419 58.15% 51 270
28.10.2015 WuTanker 2 070 57.62% 18 600
28.10.2015 ZdravkoColic 1 847 55.18% 22 292
28.10.2015 Warous 1 377 50.12% 18 216
27.10.2015 BurcEdinburgh 1 170 50.05% 21 962
26.10.2015 lorddjinns 1 857 53.62% 34 838
26.10.2015 XxJinsxX 1 433 49.68% 37 805
25.10.2015 Krakinjo 1 551 52.95% 25 260
23.10.2015 sorrow43 1 730 52.56% 24 451
22.10.2015 Warrez_SRB 1 614 52.29% 14 468
21.10.2015 sorrow43 1 730 52.56% 24 451
21.10.2015 joks256 1 781 55.62% 22 680
20.10.2015 david991ge 2 201 55.21% 38 163
18.10.2015 _SORENA_ 1 490 52.65% 3 248
18.10.2015 Ali_Punisherr 1 306 49.79% 31 291
17.10.2015 Fanatik75 1 535 52.45% 22 277
15.10.2015 Argus83 1 605 52.33% 29 976
13.10.2015 SO4P_M4CT4V1SH 1 736 52.79% 11 840
13.10.2015 Gotorak 1 437 51.47% 22 521
13.10.2015 CroDemon 2 413 61.27% 3 783
12.10.2015 djura29 1 813 53.51% 33 529
12.10.2015 _SORENA_ 1 490 52.65% 3 248
11.10.2015 Kyve 1 564 51.55% 24 976
11.10.2015 Repressionone 1 667 53.62% 10 332
11.10.2015 Kiseljak_94 1 659 53.6% 29 132
11.10.2015 Snajper_Saper 1 653 53.24% 37 215
11.10.2015 Superbaka 1 485 52.71% 25 237
09.10.2015 Armmin 1 540 51.5% 38 622
08.10.2015 ThehandofGod1 2 244 60.13% 2 729
08.10.2015 Armmin 1 540 51.5% 38 622
08.10.2015 budihudi_ 1 172 48.71% 27 403
05.10.2015 MareMatrix 2 237 55.35% 9 579
05.10.2015 Guzovski 2 075 55.44% 28 007
04.10.2015 IISasorII 1 534 51.45% 21 488
03.10.2015 budihudi_ 1 172 48.71% 27 403
03.10.2015 celepharn 2 173 58.77% 48 708
03.10.2015 CramikazZze 2 044 54.02% 24 328
01.10.2015 ir_Aria 1 065 48.47% 24 363
01.10.2015 tomica90 1 252 50.06% 12 730
01.10.2015 kozaribok 1 389 51.9% 20 919
01.10.2015 CramikazZze 2 044 54.02% 24 328
01.10.2015 PauliCro 2 536 58.41% 13 406
30.09.2015 Topn 1 968 52.69% 38 515
29.09.2015 CraftyCatcher 1 580 52.22% 37 200
29.09.2015 noboni 2 272 56.74% 34 936
29.09.2015 drColumbusOkrutni 1 943 54.44% 40 343
28.09.2015 Warrez_SRB 1 614 52.29% 14 468
28.09.2015 MalySmokot 1 530 53.2% 22 360
27.09.2015 Rimmer_WarMashinerija 1 731 53.06% 41 810
26.09.2015 Siro111 1 777 54.48% 8 341
25.09.2015 Matek67 1 746 54.33% 17 932
25.09.2015 fesa9169 1 453 52.53% 13 576
25.09.2015 mirza1995 1 700 53.58% 27 884
25.09.2015 henrymaster 1 764 52.61% 19 213
25.09.2015 another_acc 2 253 56.94% 8 642
24.09.2015 IUTIPatriot 1 537 51.42% 25 408
24.09.2015 _Kylo__Ren_ 2 652 60.14% 3 274
23.09.2015 TheotY 1 590 52.65% 19 359
23.09.2015 Adrijano09 1 543 50.25% 23 140
22.09.2015 CongTong 1 583 52.56% 24 928
21.09.2015 Mata_FTW 1 985 55.4% 12 857
21.09.2015 aqvila_ns 1 538 52.19% 26 791
20.09.2015 djura29 1 813 53.51% 33 529
19.09.2015 DUCA_ 2 001 57.72% 18 665
17.09.2015 aqvila_ns 1 538 52.19% 26 791
17.09.2015 _Kylo__Ren_ 2 652 60.14% 3 274
17.09.2015 __SPRAJA__ 1 577 52.27% 51 680
17.09.2015 ThehandofGod1 2 244 60.13% 2 729
17.09.2015 AlphaTheIronFate 1 577 53.27% 25 228
17.09.2015 drColumbusOkrutni 1 943 54.44% 40 343
16.09.2015 grikopacquiao 2 026 54.49% 29 937
16.09.2015 D3adm3n 2 205 56.8% 14 309
16.09.2015 JOK3R_1607 1 537 52.3% 28 795
16.09.2015 dmmusa8 1 076 48.72% 73 195
15.09.2015 KamikazePingvin 3 489 62.5% 25 741
15.09.2015 Maki711 1 904 53.85% 23 387
15.09.2015 dmmusa8 1 076 48.72% 73 195
13.09.2015 sale6263 1 533 51.49% 23 406
13.09.2015 Hvarska_Zvir 1 540 50.33% 39 882
13.09.2015 Mata_FTW 1 985 55.4% 12 857
13.09.2015 pepac 1 713 54.56% 32 839
12.09.2015 XUnicumX 1 542 56.3% 56 190
12.09.2015 Rimmer_WarMashinerija 1 731 53.06% 41 810
12.09.2015 Maluqinho_Bestija 2 584 59.31% 6 679
11.09.2015 mallishishmish 2 180 55.98% 8 928
09.09.2015 Kyve 1 564 51.55% 24 976
09.09.2015 CroSoldier_ZGB 1 626 51.95% 39 870
08.09.2015 bajkic 1 374 53.27% 55 735
08.09.2015 epits1004 1 924 55.73% 23 316
08.09.2015 bosanskamikaza 1 744 54.03% 28 126
08.09.2015 _Avrelio_ 1 837 53.26% 8 155
07.09.2015 MalySmokot 1 530 53.2% 22 360
07.09.2015 Maki711 1 904 53.85% 23 387
07.09.2015 BurcEdinburgh 1 170 50.05% 21 962
07.09.2015 CroSoldier_ZGB 1 626 51.95% 39 870
06.09.2015 Siro111 1 777 54.48% 8 341
05.09.2015 _SORENA_ 1 490 52.65% 3 248
04.09.2015 Scrop 1 643 51.93% 14 614
04.09.2015 ZoranSRB1985 1 336 49.94% 27 583
03.09.2015 _TheJoker 2 289 57.33% 17 070
02.09.2015 mayer_92 1 636 53.96% 35 959
02.09.2015 robalPL47 1 543 53.06% 25 982
01.09.2015 Ilija_Cvorovic 1 450 50.83% 46 998
01.09.2015 dr_Mckay_Zg 1 922 59.56% 1 580
01.09.2015 jegi_razor 1 321 52.11% 10 925
01.09.2015 jolee81 1 213 49.71% 29 132
01.09.2015 GOLDSUCHT 1 901 66.77% 15 350
01.09.2015 antoniozd 1 229 50.19% 17 826
01.09.2015 gerwoo 1 829 52.64% 29 846
01.09.2015 MrVictorius99 1 718 52.2% 14 423
01.09.2015 Vysixo 1 874 54.82% 8 978
01.09.2015 DenisTuzla 1 781 56.43% 1 299
01.09.2015 Mrljina 1 393 50.39% 20 623
31.08.2015 SO4P_M4CT4V1SH 1 736 52.79% 11 840
30.08.2015 david991ge 2 201 55.21% 38 163
29.08.2015 Leona4com 1 856 53.35% 9 916
29.08.2015 ir_Aria 1 065 48.47% 24 363
28.08.2015 Orryx 1 574 51.92% 19 086
27.08.2015 _SORENA_ 1 490 52.65% 3 248
26.08.2015 Maluqinho_Bestija 2 584 59.31% 6 679
25.08.2015 Ali_Punisherr 1 306 49.79% 31 291
25.08.2015 warlions 1 303 50.62% 26 430
24.08.2015 Bosnian_Destroyer_ 1 302 52.45% 14 652
23.08.2015 CroAce 1 827 53.56% 33 128
22.08.2015 ludimiljac 1 397 51.82% 35 639
21.08.2015 GespensterJaeger 1 529 52.99% 36 281
17.08.2015 ThehandofGod1 2 244 60.13% 2 729
17.08.2015 kikegio 1 403 51.53% 16 168
17.08.2015 piskoonline1969 1 469 52.07% 69 718
17.08.2015 cadyy 1 725 51.56% 35 515
14.08.2015 Mijo_Peh 2 119 55.93% 77 913
11.08.2015 D3adm3n 2 205 56.8% 14 309
11.08.2015 mallishishmish 2 180 55.98% 8 928
11.08.2015 Dominic_Toretto_ 2 064 57.31% 17 020
11.08.2015 Blue_Wizard_ 2 188 58.75% 9 113
11.08.2015 MeltDownLTU 2 099 55.95% 22 372
07.08.2015 69th_Acc 1 785 56.01% 13 912
06.08.2015 69th_Acc 1 785 56.01% 13 912
05.08.2015 SaMo_NaCl 1 652 52.68% 22 745
05.08.2015 SkockoCRO 1 612 52.05% 12 460
05.08.2015 GLUTES 2 120 55.22% 28 509
03.08.2015 Blesavko 2 169 57.3% 28 517
02.08.2015 MeltDownLTU 2 099 55.95% 22 372
31.07.2015 cadyy 1 725 51.56% 35 515
31.07.2015 _SORENA_ 1 490 52.65% 3 248
31.07.2015 stalker_stx 2 330 57.32% 33 624
30.07.2015 mirza1995 1 700 53.58% 27 884
29.07.2015 epits1004 1 924 55.73% 23 316
26.07.2015 DrU6Hii 1 407 50.55% 18 263
25.07.2015 Zeko_Ministar_1
from: [EXS] ExileS
2 041 56.57% 5 171
24.07.2015 Iso009 1 598 53.69% 14 661
23.07.2015 Mrtvac1_1 1 761 56.3% 12 798
23.07.2015 DrU6Hii 1 407 50.55% 18 263
22.07.2015 M4sterBates 2 296 57.95% 18 405
22.07.2015 kikegio 1 403 51.53% 16 168
22.07.2015 stalker_stx 2 330 57.32% 33 624
22.07.2015 nemom93 1 842 53.64% 26 550
21.07.2015 Dominic_Toretto_ 2 064 57.31% 17 020
20.07.2015 KamikazePingvin 3 489 62.5% 25 741
20.07.2015 Blue_Wizard_ 2 188 58.75% 9 113
19.07.2015 deep_zek 1 539 50.93% 32 219
17.07.2015 Snajper_Saper 1 653 53.24% 37 215
16.07.2015 Desecrated
from: [-MIA-] MIA
2 211 57.86% 15 580
14.07.2015 LadyDarky 1 417 52.85% 25 160
14.07.2015 bosanskamikaza 1 744 54.03% 28 126
12.07.2015 AlphaTheIronFate 1 577 53.27% 25 228
12.07.2015 Buzuk_ 2 555 58.79% 13 461
12.07.2015 _SORENA_ 1 490 52.65% 3 248
12.07.2015 DarthCharius 1 827 54.07% 42 122
12.07.2015 LadyDarky 1 417 52.85% 25 160
12.07.2015 DoctorDeath_The_ANIMAL 2 034 55.19% 30 701
12.07.2015 Lanser6 1 748 54.68% 38 475
11.07.2015 PCkanuista 2 085 55.41% 10 720
10.07.2015 M4sterBates 2 296 57.95% 18 405
10.07.2015 pikypoky 1 479 52.48% 43 970
10.07.2015 lovrima 1 631 53.19% 25 610
02.07.2015 Aleksandar987 2 308 56.84% 20 981
02.07.2015 djole_123 1 218 51.38% 19 615
02.07.2015 rjanos78 1 100 49.95% 24 251
01.07.2015 rocko73 1 273 51.23% 38 710
01.07.2015 tony23pro 1 584 53.46% 48 916
01.07.2015 JonikkaSRB 1 572 53.08% 33 906
01.07.2015 MartinNS 1 797 53.5% 82 942
01.07.2015 henrymaster 1 764 52.61% 19 213
01.07.2015 Vujko1990 2 168 55.58% 25 865
01.07.2015 Benouf 1 597 53.36% 15 647
01.07.2015 Moriquend 1 883 56.04% 28 580
01.07.2015 W1ckedVarg 2 585 60.15% 906
01.07.2015 ToeCutter_1 1 438 51.15% 23 412
01.07.2015 LooTman 2 153 54.95% 23 880
01.07.2015 __Hades_ 1 638 52.85% 32 451
01.07.2015 kovac983 1 272 49.9% 30 955
01.07.2015 Predatopreda 1 298 51.26% 51 904
01.07.2015 Livdavor 1 337 50.44% 8 658
01.07.2015 MiroCRO787Dreamliner 1 027 49.31% 27 339
01.07.2015 CoravSamNaObaOka 2 273 56.12% 27 847
01.07.2015 Venom011 1 108 51.74% 15 336
30.06.2015 Guzovski 2 075 55.44% 28 007
29.06.2015 dmmusa8 1 076 48.72% 73 195
28.06.2015 MiroCRO787Dreamliner
from: [OSV] Osveta
1 027 49.31% 27 339
27.06.2015 Huhowsky 1 524 53.6% 25 534
27.06.2015 _JuDaS_WhO_SoLd_JeSuS_ 1 376 51% 24 282
27.06.2015 onlineding 1 608 53.54% 10 558
27.06.2015 Totomoto_SRB 1 430 51.76% 20 941
27.06.2015 cubak 1 719 53.68% 20 230
27.06.2015 Krakinjo 1 551 52.95% 25 260
27.06.2015 CroDemon 2 413 61.27% 3 783
26.06.2015 DABL 1 079 49.32% 33 006
26.06.2015 dr_Mckay_Zg 1 922 59.56% 1 580
26.06.2015 Kiseljak_94 1 659 53.6% 29 132
25.06.2015 kovac983
from: [OSV] Osveta
1 272 49.9% 30 955
25.06.2015 rjanos78
from: [OSV] Osveta
1 100 49.95% 24 251
24.06.2015 JonikkaSRB 1 572 53.08% 33 906
24.06.2015 kapularko 1 723 53.07% 37 359
24.06.2015 rocko73
from: [OSV] Osveta
1 273 51.23% 38 710
24.06.2015 djole_123
from: [OSV] Osveta
1 218 51.38% 19 615
24.06.2015 Aleksandar987
from: [OSV] Osveta
2 308 56.84% 20 981
24.06.2015 MartinNS
from: [OSV] Osveta
1 797 53.5% 82 942
22.06.2015 CraftyCatcher 1 580 52.22% 37 200
22.06.2015 slawwe 1 356 50.58% 30 537
22.06.2015 Reddro 1 667 52.24% 23 557
22.06.2015 Pyroclysm 1 227 49.42% 12 237
22.06.2015 leeman3 1 631 53.32% 8 624
22.06.2015 Veljance 1 386 50.29% 17 582
22.06.2015 mushufasa8 1 384 51.48% 26 257
22.06.2015 Xanotter 2 019 55.24% 21 689
22.06.2015 MrWhite45 1 535 51.55% 54 901
22.06.2015 Giorgi739 1 960 53.04% 25 849
21.06.2015 RuShEr__ 2 729 58.92% 10 236
21.06.2015 MrBiceps93
from: [OSV] Osveta
1 764 53.56% 16 551
20.06.2015 Angry_Sh4rk 3 114 60.45% 6 069
20.06.2015 270_Winchester 1 878 53.51% 21 096
19.06.2015 tony23pro
from: [OSV] Osveta
1 584 53.46% 48 916
16.06.2015 Armmin 1 540 51.5% 38 622
16.06.2015 kuzma_CRO_ 1 720 53.83% 15 809
16.06.2015 Armmin 1 540 51.5% 38 622
15.06.2015 Reddro 1 667 52.24% 23 557
13.06.2015 the_one_who_fails 1 548 53.03% 3 932
13.06.2015 Bosnian_Destroyer_ 1 302 52.45% 14 652
13.06.2015 HeavyDuty01 2 047 58.49% 2 922
12.06.2015 _CasusBelli 1 311 50.74% 7 744
12.06.2015 FireLeviathan 1 643 52.19% 27 074
12.06.2015 MrVictorius99 1 718 52.2% 14 423
12.06.2015 kapsel_brkini 1 926 55.85% 29 055
11.06.2015 _SN0B_ 2 403 60.8% 926
11.06.2015 viermicica 1 815 54.65% 44 444
09.06.2015 MaxMcMetal 2 120 60.32% 12 138
09.06.2015 _JuDaS_WhO_SoLd_JeSuS_ 1 376 51% 24 282
09.06.2015 Dzibril 1 415 51.69% 36 888
09.06.2015 fillax 1 681 52.46% 32 794
08.06.2015 DugiM 1 676 56.81% 20 961
08.06.2015 Venom011 1 108 51.74% 15 336
07.06.2015 _dB 1 683 54.82% 15 056
07.06.2015 lewylewy 1 637 53.94% 28 120
06.06.2015 CroAce 1 827 53.56% 33 128
06.06.2015 Dzibril 1 415 51.69% 36 888
06.06.2015 Alexcampea_Alexrodea 2 211 56.49% 1 409
06.06.2015 mickeY_raT 2 086 57.37% 19 557
06.06.2015 dokkli 1 757 54.75% 20 622
05.06.2015 Harlequin407 2 526 59.39% 31 217
05.06.2015 Alexcampea_Alexrodea 2 211 56.49% 1 409
05.06.2015 dokkli 1 757 54.75% 20 622
04.06.2015 00mihec00 2 206 57.29% 26 597
04.06.2015 GLUTES 2 120 55.22% 28 509
04.06.2015 W1ckedVarg 2 585 60.15% 906
04.06.2015 kapularko 1 723 53.07% 37 359
04.06.2015 kapsel_brkini 1 926 55.85% 29 055
03.06.2015 MaxMcMetal 2 120 60.32% 12 138
02.06.2015 mickeY_raT 2 086 57.37% 19 557
02.06.2015 Harlequin407 2 526 59.39% 31 217
02.06.2015 Xanotter 2 019 55.24% 21 689
02.06.2015 ToeCutter_1 1 438 51.15% 23 412
01.06.2015 kapularko 1 723 53.07% 37 359
30.05.2015 thesorin 1 808 53.9% 13 780
30.05.2015 Predatopreda 1 298 51.26% 51 904
30.05.2015 kuzma_CRO_ 1 720 53.83% 15 809
29.05.2015 slawwe 1 356 50.58% 30 537
29.05.2015 kakozasto 2 340 56.96% 26 684
28.05.2015 SkockoCRO 1 612 52.05% 12 460
28.05.2015 dadoni 1 673 53.68% 25 941
28.05.2015 00mihec00 2 206 57.29% 26 597
28.05.2015 guille186 1 914 53.58% 20 294
28.05.2015 l3go_l3g1um_CaP0 1 868 53.81% 50 777
27.05.2015 TenkistaizDuvna 1 214 49.51% 6 494
27.05.2015 Hvo1993 1 212 50.37% 10 800
27.05.2015 JopaPL 1 782 54.4% 2 046
27.05.2015 Vujko1990 2 168 55.58% 25 865
27.05.2015 _CasusBelli 1 311 50.74% 7 744
27.05.2015 Moriquend 1 883 56.04% 28 580
27.05.2015 Vysixo 1 874 54.82% 8 978
27.05.2015 kico987 2 372 59.42% 22 703
27.05.2015 JOK3R_1607 1 537 52.3% 28 795
27.05.2015 drColumbusOkrutni 1 943 54.44% 40 343
25.05.2015 Hemerdon 1 373 51.55% 28 811
25.05.2015 crvic 1 686 52.85% 30 239
24.05.2015 Orryx 1 574 51.92% 19 086
24.05.2015 Frederic111 2 183 56.62% 14 865
23.05.2015 gebajzler 1 321 50.36% 44 318
23.05.2015 njusho 1 192 49.57% 17 754
22.05.2015 ThE_BooMM 1 923 53.87% 42 187
21.05.2015 Kob4tus 1 822 55.88% 5 771
21.05.2015 Benouf 1 597 53.36% 15 647
21.05.2015 Viper_CRO 1 169 51.53% 11 443
21.05.2015 nemesis_cro 2 129 55.9% 49 714
21.05.2015 mamairena 1 523 51.47% 61 448
21.05.2015 MallaTina 1 004 49.21% 16 708
21.05.2015 Zlocesta_Buba 1 332 50.59% 27 599
21.05.2015 _ANABOLIQ_ 1 509 52.26% 22 691
18.05.2015 kozaribok 1 389 51.9% 20 919
18.05.2015 thesorin 1 808 53.9% 13 780
18.05.2015 ReFl33x 2 103 56.99% 16 132
17.05.2015 Mijo_Peh 2 119 55.93% 77 913
17.05.2015 Vysixo 1 874 54.82% 8 978
16.05.2015 _Mirjana_ 1 262 51.66% 8 008
16.05.2015 fillax 1 681 52.46% 32 794
16.05.2015 W1ckedVarg 2 585 60.15% 906
16.05.2015 Viper_CRO 1 169 51.53% 11 443
16.05.2015 ludivepar 1 313 52.27% 35 025
16.05.2015 guille186 1 914 53.58% 20 294
16.05.2015 kakozasto 2 340 56.96% 26 684
16.05.2015 piskoonline1969 1 469 52.07% 69 718
15.05.2015 HeavyDuty01 2 047 58.49% 2 922
15.05.2015 termomit 1 428 52.35% 40 942
15.05.2015 POMERIO20 1 473 51.89% 41 066
15.05.2015 MrWhite45 1 535 51.55% 54 901
14.05.2015 SkockoCRO 1 612 52.05% 12 460
14.05.2015 elektrix 2 265 59.15% 34 071
14.05.2015 kico987 2 372 59.42% 22 703
14.05.2015 drColumbusOkrutni 1 943 54.44% 40 343
13.05.2015 the_one_who_fails 1 548 53.03% 3 932
13.05.2015 _Mirjana_ 1 262 51.66% 8 008
13.05.2015 kapularko 1 723 53.07% 37 359
11.05.2015 Snajper_Saper 1 653 53.24% 37 215
11.05.2015 the_one_who_fails 1 548 53.03% 3 932
11.05.2015 Penetracija_Junior 1 901 55.49% 3 415
11.05.2015 budihudi_ 1 172 48.71% 27 403
11.05.2015 l3go_l3g1um_CaP0 1 868 53.81% 50 777
11.05.2015 JopaPL 1 782 54.4% 2 046
11.05.2015 mushufasa8 1 384 51.48% 26 257
11.05.2015 Pyroclysm 1 227 49.42% 12 237
10.05.2015 kapularko 1 723 53.07% 37 359
10.05.2015 JopaPL 1 782 54.4% 2 046
09.05.2015 djidji047 1 961 54.86% 22 943
09.05.2015 kapularko 1 723 53.07% 37 359
08.05.2015 nemesis_cro 2 129 55.9% 49 714
08.05.2015 the_one_who_fails 1 548 53.03% 3 932
08.05.2015 ReFl33x 2 103 56.99% 16 132
08.05.2015 ThePunisher_Alan237 1 605 52.78% 35 936
08.05.2015 TenkistaizDuvna 1 214 49.51% 6 494
04.05.2015 diabollo_83 1 644 52.7% 47 332
02.05.2015 krazy_8 1 839 53.69% 34 529
30.04.2015 Dragan_87 1 830 53.55% 34 656
29.04.2015 FireLeviathan 1 643 52.19% 27 074
29.04.2015 krazy_8 1 839 53.69% 34 529
28.04.2015 W1ckedVarg 2 585 60.15% 906
28.04.2015 PCkanuista 2 085 55.41% 10 720
27.04.2015 ZoranSRB1985 1 336 49.94% 27 583
27.04.2015 ThePunisher_Alan237 1 605 52.78% 35 936
26.04.2015 martin11215 1 211 49.82% 18 614
25.04.2015 drle11 1 265 50.45% 28 409
24.04.2015 Predatopreda 1 298 51.26% 51 904
24.04.2015 Kondor_Srb 1 232 50.18% 35 184
24.04.2015 zaravela 924 49.49% 6 959
24.04.2015 CroMan1 1 273 51.95% 16 472
24.04.2015 kljukica 1 517 51.92% 28 870
24.04.2015 ludivepar 1 313 52.27% 35 025
24.04.2015 Aleksandar 1 405 51.02% 32 698
24.04.2015 omega2002 1 367 51.42% 12 121
22.04.2015 mata190 1 730 54.12% 23 588
21.04.2015 Orryx 1 574 51.92% 19 086
20.04.2015 gillee 1 718 52.59% 21 463
20.04.2015 ljubosek007 1 314 50.18% 29 177
19.04.2015 VlKAMAN 2 724 62.83% 9 627
19.04.2015 Mr_Bombastikk 1 668 55.44% 37 321
19.04.2015 ThehandofGod1 2 244 60.13% 2 729
19.04.2015 POMERIO20 1 473 51.89% 41 066
18.04.2015 Snajper_Saper 1 653 53.24% 37 215
18.04.2015 vulcandabo 2 016 54.19% 25 308
17.04.2015 Kovix 1 453 51.24% 23 228
17.04.2015 Asky 2 005 54.89% 7 410
11.04.2015 kico987 2 372 59.42% 22 703
10.04.2015 dmmusa8 1 076 48.72% 73 195
10.04.2015 kncl08 1 347 51.28% 21 723
09.04.2015 ___Why_Always_Me___ 1 725 52.31% 20 606
09.04.2015 dadoni 1 673 53.68% 25 941
09.04.2015 kncl08 1 347 51.28% 21 723
08.04.2015 guille186 1 914 53.58% 20 294
06.04.2015 Predatopreda 1 298 51.26% 51 904
06.04.2015 Orryx 1 574 51.92% 19 086
06.04.2015 muhhamen 1 703 54.25% 60 060
06.04.2015 diabollo_83 1 644 52.7% 47 332
06.04.2015 ___Why_Always_Me___ 1 725 52.31% 20 606
05.04.2015 _TheJoker 2 289 57.33% 17 070
05.04.2015 Mr_Bombastikk 1 668 55.44% 37 321
05.04.2015 CyBeRpUnK 1 682 52.82% 50 893
01.04.2015 Merciful_Angel_SRB 2 032 57.38% 16 712
01.04.2015 Bold_Ruler 1 914 54.66% 27 986
30.03.2015 _Spirit_ 1 910 55.11% 22 660
30.03.2015 Copy2OG 1 227 51.75% 16 730
30.03.2015 Livdavor 1 337 50.44% 8 658
30.03.2015 CoravSamNaObaOka 2 273 56.12% 27 847
30.03.2015 Hvo1993 1 212 50.37% 10 800
29.03.2015 xxZeusxx 1 953 53.86% 10 220
29.03.2015 zliouka 1 616 61.53% 16 229
29.03.2015 Benouf 1 597 53.36% 15 647
29.03.2015 Machete86 1 623 51.55% 37 454
29.03.2015 DABL 1 079 49.32% 33 006
29.03.2015 ThehandofGod1 2 244 60.13% 2 729
28.03.2015 budihudi_ 1 172 48.71% 27 403
28.03.2015 ghidi 1 449 51.2% 17 604
27.03.2015 DenisTuzla 1 781 56.43% 1 299
26.03.2015 RageThunder71 1 505 52.58% 60 274
26.03.2015 DABL 1 079 49.32% 33 006
26.03.2015 vulcandabo 2 016 54.19% 25 308
26.03.2015 Mrljina 1 393 50.39% 20 623
26.03.2015 martin11215 1 211 49.82% 18 614
26.03.2015 Copy2OG 1 227 51.75% 16 730
25.03.2015 Cpt_Ljevarko 2 034 57.05% 12 475
24.03.2015 KalEl666 1 583 51.56% 11 866
24.03.2015 DeathScrap 2 054 55.6% 17 780
24.03.2015 Viper_CRO 1 169 51.53% 11 443
24.03.2015 SHARK81 1 991 55.15% 37 432
24.03.2015 drle11 1 265 50.45% 28 409
24.03.2015 kakozasto 2 340 56.96% 26 684
23.03.2015 Huhowsky 1 524 53.6% 25 534
22.03.2015 gebajzler 1 321 50.36% 44 318
22.03.2015 tigar007 1 872 51.93% 26 780
22.03.2015 svilenski 1 473 51.8% 34 524
22.03.2015 drColumbusOkrutni 1 943 54.44% 40 343
22.03.2015 GOLDSUCHT 1 901 66.77% 15 350
21.03.2015 Wexla 1 442 50.73% 21 761
21.03.2015 Kalauzz 1 891 53.74% 22 102
21.03.2015 Penetracija_Junior 1 901 55.49% 3 415
21.03.2015 shunqino 1 247 50.88% 45 579
21.03.2015 Frederic111 2 183 56.62% 14 865
21.03.2015 fillax 1 681 52.46% 32 794
21.03.2015 MallaTina 1 004 49.21% 16 708
21.03.2015 djidji047 1 961 54.86% 22 943
21.03.2015 RuShEr__ 2 729 58.92% 10 236
21.03.2015 mamairena 1 523 51.47% 61 448
21.03.2015 njusho 1 192 49.57% 17 754
21.03.2015 Zlocesta_Buba 1 332 50.59% 27 599
21.03.2015 _ANABOLIQ_ 1 509 52.26% 22 691
20.03.2015 zaravela 924 49.49% 6 959
20.03.2015 DeathScrap 2 054 55.6% 17 780
20.03.2015 VlKAMAN 2 724 62.83% 9 627
20.03.2015 LittleCaneCorso 1 515 52.81% 36 890
19.03.2015 senetosa2a 1 533 55.53% 27 676
19.03.2015 Bold_Ruler 1 914 54.66% 27 986
19.03.2015 komaracIVC 1 655 52.19% 22 286
18.03.2015 Krakinjo 1 551 52.95% 25 260
18.03.2015 Merciful_Angel_SRB 2 032 57.38% 16 712
17.03.2015 Loebi 1 491 51.25% 24 358
17.03.2015 Hvarska_Zvir 1 540 50.33% 39 882
16.03.2015 Loebi 1 491 51.25% 24 358
16.03.2015 Wexla 1 442 50.73% 21 761
16.03.2015 ZGDukemeister 2 039 55.65% 23 773
16.03.2015 LittleCaneCorso 1 515 52.81% 36 890
16.03.2015 muhhamen 1 703 54.25% 60 060
15.03.2015 Ghetto_max 1 851 55.23% 31 339
15.03.2015 SaMo_NaCl 1 652 52.68% 22 745
12.03.2015 SaMo_NaCl 1 652 52.68% 22 745
10.03.2015 KantaZaNabijanje 1 226 51% 29 411
09.03.2015 DenisTuzla 1 781 56.43% 1 299
09.03.2015 kljukica 1 517 51.92% 28 870
09.03.2015 Veljance 1 386 50.29% 17 582
08.03.2015 DonKronoX 1 628 52.9% 13 725
08.03.2015 CYKLA 1 504 51.53% 38 846
08.03.2015 Ludi_Tenkista_ 2 664 60.11% 2 547
08.03.2015 ZGDukemeister 2 039 55.65% 23 773
08.03.2015 tomica90 1 252 50.06% 12 730
06.03.2015 gerwoo 1 829 52.64% 29 846
06.03.2015 voodoo72 1 203 52.44% 12 456
06.03.2015 CRO_BRIGADA 1 799 60.19% 30 805
05.03.2015 ThE_BooMM 1 923 53.87% 42 187
05.03.2015 nevervarine 2 501 58.08% 58 416
05.03.2015 vulcandabo
from: [ME] IGNORE
2 016 54.19% 25 308
05.03.2015 Totomoto_SRB 1 430 51.76% 20 941
04.03.2015 CRO_BRIGADA 1 799 60.19% 30 805
01.03.2015 herman3 1 667 52.6% 44 430
28.02.2015 plywak23 1 369 50.47% 13 851
28.02.2015 Dr_Hico 2 365 59.55% 8 081
28.02.2015 plywak23 1 369 50.47% 13 851
27.02.2015 Gorakh 1 359 51.99% 23 325
23.02.2015 omega2002 1 367 51.42% 12 121
22.02.2015 Cke_MDFK 1 872 54.44% 28 765
21.02.2015 packe123 1 345 52.02% 41 094
21.02.2015 termomit 1 428 52.35% 40 942
20.02.2015 Ludi_Tenkista_ 2 664 60.11% 2 547
19.02.2015 Mijo_Peh 2 119 55.93% 77 913
19.02.2015 Gorakh 1 359 51.99% 23 325
18.02.2015 CICO1998 1 693 52.15% 19 677
16.02.2015 Guth27 1 789 53.37% 18 213
15.02.2015 SaMo_NaCl 1 652 52.68% 22 745
15.02.2015 PCkanuista 2 085 55.41% 10 720
14.02.2015 panz3ru 1 180 48.36% 15 197
13.02.2015 Astralni 1 294 50.93% 33 764
13.02.2015 Kovix 1 453 51.24% 23 228
12.02.2015 panz3ru 1 180 48.36% 15 197
12.02.2015 SkockoCRO 1 612 52.05% 12 460
11.02.2015 Astralni 1 294 50.93% 33 764
10.02.2015 herman3 1 667 52.6% 44 430
10.02.2015 _TheJoker 2 289 57.33% 17 070
09.02.2015 nevervarine 2 501 58.08% 58 416
08.02.2015 ACkE12 2 308 59.27% 28 306
08.02.2015 Viper_CRO 1 169 51.53% 11 443
07.02.2015 ACkE12
from: [ME] IGNORE
2 308 59.27% 28 306
05.02.2015 Kalauzz 1 891 53.74% 22 102
02.02.2015 gebajzler 1 321 50.36% 44 318
02.02.2015 ddrazen 1 495 51.78% 33 351
01.02.2015 dragan255 1 485 51.86% 37 494
01.02.2015 __Hades_ 1 638 52.85% 32 451
31.01.2015 GuardianAngelFromHeaven 1 659 52.48% 47 921